Weather History for KAVX - January, 2012

Change the Weather History Date:

Thursday, January 5, 2012

  Actual Average Record
Temperature  
Mean Temperature 74 °F -  
Max Temperature 78 °F 58 °F 78 °F (2012)
Min Temperature 69 °F 49 °F 44 °F (2007)
Cooling Degree Days 8    
Growing Degree Days 24 (Base 50)    
Moisture  
Dew Point 19 °F    
Average Humidity 13    
Maximum Humidity 16    
Minimum Humidity 10    
Precipitation  
Precipitation 0.00 in - - ()
Sea Level Pressure  
Sea Level Pressure 30.05 in    
Wind  
Wind Speed 4 mph (WNW)    
Max Wind Speed 9 mph    
Max Gust Speed -    
Visibility 10 miles    
Events      
Averages and records for this station are not official NWS values.
T = Trace of Precipitation, MM = Missing Value Source: NWS Daily Summary

Daily Weather History Graph

Daily Weather History Graph

Search for Another Location

Airport or City:

Trip Planner

Search our weather history database for the weather conditions in past years. The results will help you decide how hot, cold, wet, or windy it might be!

Date:

Astronomy

Jan. 05, 2012 Rise Set
Actual Time 6:58 AM PST 4:59 PM PST
Civil Twilight 6:30 AM PST 5:27 PM PST
Nautical Twilight 6:00 AM PST 5:58 PM PST
Astronomical Twilight 5:29 AM PST 6:28 PM PST
Moon 2:07 PM PST (1/5) 3:47 AM PST (1/5)
Length of Visible Light 10h 56m
Length of Day
10h 01m
Waxing Gibbous, 88% of the Moon is Illuminated
Jan 5
Waxing Gibbous
Jan 8
Full
Jan 16
Last Quarter
Jan 22
New
Jan 30
First Quarter

Hourly Weather History & Observations

Time (PST) Temp. Dew Point Humidity Pressure Visibility Wind Dir Wind Speed Gust Speed Precip Events Conditions
12:51 AM 75.9 °F 16.0 °F 10% 30.13 in 10.0 mi NNE 3.5 mph - N/A   Clear
1:51 AM 75.9 °F 16.0 °F 10% 30.13 in 10.0 mi Calm Calm - N/A   Clear
3:51 AM 75.0 °F 18.0 °F 12% 30.12 in 10.0 mi Calm Calm - N/A   Clear
4:51 AM 73.9 °F 17.1 °F 12% 30.12 in 10.0 mi SW 4.6 mph - N/A   Clear
6:51 AM 73.9 °F 18.0 °F 12% 30.12 in 10.0 mi SW 4.6 mph - N/A   Clear
7:51 AM 73.0 °F 19.9 °F 14% 30.13 in 10.0 mi WSW 4.6 mph - N/A   Clear
8:51 AM 75.0 °F 19.0 °F 12% 30.13 in 10.0 mi WSW 3.5 mph - N/A   Clear
10:51 AM 77.0 °F 25.0 °F 15% 30.10 in 10.0 mi Variable 3.5 mph - N/A   Clear
11:51 AM 77.0 °F 26.1 °F 15% 30.06 in 10.0 mi West 5.8 mph - N/A   Clear
12:51 PM 78.1 °F 25.0 °F 14% 30.03 in 10.0 mi West 5.8 mph - N/A   Clear
1:51 PM 75.9 °F 27.0 °F 16% 30.01 in 10.0 mi West 6.9 mph - N/A   Clear
2:51 PM 75.0 °F 26.1 °F 16% 29.99 in 10.0 mi WSW 8.1 mph - N/A   Clear
4:51 PM 70.0 °F 18.0 °F 14% 29.99 in 10.0 mi WSW 9.2 mph - N/A   Clear
5:51 PM 69.1 °F 19.0 °F 15% 30.00 in 10.0 mi West 9.2 mph - N/A   Clear
6:51 PM 69.1 °F 17.1 °F 14% 30.00 in 10.0 mi NW 8.1 mph - N/A   Clear
7:51 PM 69.1 °F 17.1 °F 14% 30.01 in 10.0 mi NW 8.1 mph - N/A   Clear
8:51 PM 70.0 °F 16.0 °F 13% 29.99 in 10.0 mi NNW 5.8 mph - N/A   Clear
9:51 PM 69.1 °F 17.1 °F 14% 30.00 in 10.0 mi NW 4.6 mph - N/A   Clear
10:51 PM 73.0 °F 15.1 °F 11% 29.97 in 10.0 mi North 6.9 mph - N/A   Clear
11:51 PM 70.0 °F 16.0 °F 13% 29.96 in 10.0 mi NW 3.5 mph - N/A   Clear